This is the latest recevied weather packets stored in our database for station/object N5VIS. If no packets are shown the sender has not sent any weather packets the latest 10 day(s).
| Time | Temp. | Humidity | Pressure | Rain* | Wind** | Luminosity | Snow |
|---|---|---|---|---|---|---|---|
| 1777777314 | 18.33° C | 57% | 1017.9 hPa | 0 mm | - | - | - |
| 1777777011 | 18.89° C | 54% | 1017.8 hPa | 0 mm | - | - | - |
| 1777776709 | 18.89° C | 53% | 1017.9 hPa | 0 mm | - | - | - |
| 1777776404 | 18.89° C | 55% | 1017.6 hPa | 0 mm | - | - | - |
| 1777776102 | 18.89° C | 54% | 1017.9 hPa | 0 mm | - | - | - |
| 1777775798 | 18.89° C | 54% | 1017.6 hPa | 0 mm | - | - | - |
| 1777775496 | 18.89° C | 54% | 1017.6 hPa | 0 mm | - | - | - |
| 1777775191 | 18.89° C | 54% | 1017.6 hPa | 0 mm | - | - | - |
| 1777774886 | 18.89° C | 55% | 1017.5 hPa | 0 mm | - | - | - |
| 1777774583 | 18.89° C | 52% | 1017.6 hPa | 0 mm | - | - | - |
| 1777774280 | 19.44° C | 51% | 1017.5 hPa | 0 mm | - | - | - |
| 1777773977 | 19.44° C | 54% | 1017.3 hPa | 0 mm | - | - | - |
| 1777773674 | 19.44° C | 53% | 1017.1 hPa | 0 mm | - | - | - |
| 1777773371 | 19.44° C | 54% | 1017.2 hPa | 0 mm | - | - | - |
| 1777773068 | 19.44° C | 53% | 1017.1 hPa | 0 mm | - | - | - |
| 1777772764 | 19.44° C | 54% | 1016.9 hPa | 0 mm | - | - | - |
| 1777772462 | 19.44° C | 54% | 1017 hPa | 0 mm | - | - | - |
| 1777772159 | 19.44° C | 53% | 1016.8 hPa | 0 mm | - | - | - |
| 1777771856 | 19.44° C | 51% | 1016.6 hPa | 0 mm | - | - | - |
| 1777771554 | 20° C | 52% | 1016.8 hPa | 0 mm | - | - | - |
| 1777771250 | 20° C | 52% | 1016.4 hPa | 0 mm | - | - | - |
| 1777770946 | 20° C | 51% | 1016.5 hPa | 0 mm | - | - | - |
| 1777770644 | 20° C | 52% | 1016.5 hPa | 0 mm | - | - | - |
| 1777770340 | 20° C | 51% | 1016.3 hPa | 0 mm | - | - | - |
| 1777770038 | 20° C | 51% | 1016.2 hPa | 0 mm | - | - | - |
* Rain latest hour (hover to see other rain measurements)
** Current wind speed in m/s (hover to see current wind gust speed)